EW3591 Weather Reports


time (UTC)temp
F
wind
direction
speed
knots
gust
knots
rain 1hr
in
rain 24hr
in
rain mn
in
humidity
%
barometer
mb
20260506141437 46 60 0.0 2.6 0.00 0.37 0.23 98 1008.7
20260506141237 46 60 0.0 2.6 0.00 0.37 0.23 98 1008.7
20260506141037 45 60 0.9 2.6 0.00 0.37 0.23 98 1008.8
20260506140836 45 60 0.9 2.6 0.00 0.37 0.23 98 1008.8
20260506140636 45 60 0.9 2.6 0.00 0.37 0.23 98 1008.8
20260506140436 45 60 0.0 2.6 0.00 0.37 0.23 98 1008.8
20260506140235 45 60 0.9 2.6 0.00 0.37 0.23 98 1008.8
20260506140035 45 60 0.9 2.6 0.00 0.37 0.23 98 1008.9
20260506135835 45 60 0.9 2.6 0.00 0.37 0.23 98 1008.8
20260506135634 45 59 0.9 2.6 0.00 0.37 0.23 98 1008.7
20260506135434 46 58 0.0 1.7 0.00 0.37 0.23 98 1008.7
20260506135234 46 58 0.0 1.7 0.00 0.37 0.23 98 1008.7
20260506135034 45 58 0.0 1.7 0.00 0.37 0.23 98 1008.7
20260506134833 45 58 0.9 1.7 0.00 0.37 0.23 98 1008.6
20260506134633 45 58 0.0 1.7 0.00 0.37 0.23 98 1008.6
20260506134433 45 58 0.0 1.7 0.00 0.37 0.23 98 1008.6
20260506134232 45 58 0.0 1.7 0.00 0.37 0.23 98 1008.6
20260506134032 45 50 0.0 1.7 0.00 0.37 0.23 98 1008.6
20260506133832 45 46 0.0 1.7 0.00 0.37 0.23 98 1008.5
20260506133631 45 47 0.0 1.7 0.00 0.37 0.23 98 1008.5
20260506133431 45 35 0.0 2.6 0.00 0.37 0.23 98 1008.5
20260506133231 45 348 0.9 2.6 0.00 0.37 0.23 98 1008.6
20260506133031 45 341 0.0 2.6 0.00 0.37 0.23 98 1008.6
20260506132830 45 341 0.0 2.6 0.00 0.37 0.23 98 1008.6
20260506132630 45 32 0.0 2.6 0.00 0.37 0.23 98 1008.6
20260506132430 45 45 0.9 2.6 0.00 0.37 0.23 98 1008.5
20260506132229 45 54 0.0 1.7 0.00 0.37 0.23 98 1008.5
20260506132029 45 55 0.9 1.7 0.00 0.37 0.23 98 1008.5
20260506131829 45 39 0.0 2.6 0.00 0.37 0.23 98 1008.4
20260506131628 45 27 0.0 2.6 0.00 0.37 0.23 98 1008.5
20260506131428 45 27 0.9 2.6 0.00 0.37 0.23 98 1008.5
20260506131228 45 27 0.9 2.6 0.00 0.37 0.23 98 1008.5
20260506131028 45 27 0.0 2.6 0.00 0.37 0.23 98 1008.4
20260506130827 45 27 0.0 2.6 0.00 0.37 0.23 98 1008.5
20260506130627 45 27 0.0 2.6 0.00 0.37 0.23 98 1008.5
20260506130427 45 0 0.0 1.7 0.00 0.37 0.23 98 1008.4
20260506130226 45 0 0.0 1.7 0.00 0.37 0.23 98 1008.3
20260506130026 45 27 0.0 1.7 0.00 0.37 0.23 98 1008.4
20260506125826 45 27 0.0 1.7 0.00 0.37 0.23 98 1008.3
20260506125625 45 27 0.0 2.6 0.00 0.37 0.23 98 1008.2
20260506125425 45 27 0.0 2.6 0.00 0.37 0.23 98 1008.3
20260506125225 45 27 0.0 2.6 0.00 0.37 0.23 98 1008.3
20260506125025 45 27 0.0 2.6 0.00 0.37 0.23 98 1008.4
20260506124824 45 27 0.0 2.6 0.00 0.37 0.23 98 1008.5
20260506124624 45 27 0.9 1.7 0.00 0.37 0.23 98 1008.4
20260506124424 45 27 0.9 1.7 0.00 0.37 0.23 98 1008.3
20260506124223 45 28 0.0 1.7 0.00 0.37 0.23 98 1008.5
20260506124023 45 41 0.0 1.7 0.00 0.37 0.23 98 1008.4
20260506123823 45 41 0.0 1.7 0.00 0.37 0.23 98 1008.4
20260506123622 45 41 0.0 1.7 0.00 0.37 0.23 98 1008.4
20260506123422 45 41 0.0 1.7 0.01 0.37 0.23 98 1008.4
20260506123222 45 0 0.0 1.7 0.01 0.37 0.23 98 1008.4
20260506123022 45 0 0.0 1.7 0.01 0.37 0.23 98 1008.4
20260506122821 45 41 0.0 1.7 0.01 0.37 0.23 98 1008.3
20260506122621 45 41 0.0 1.7 0.01 0.37 0.23 98 1008.3
20260506122421 45 41 0.0 1.7 0.01 0.37 0.23 98 1008.2
20260506122220 45 0 0.0 0.0 0.01 0.37 0.23 98 1008.3
20260506122020 45 0 0.0 0.0 0.01 0.37 0.23 98 1008.3
20260506121820 45 0 0.0 0.0 0.01 0.37 0.23 98 1008.3
20260506121619 45 0 0.0 0.0 0.01 0.37 0.23 98 1008.2
20260506121419 45 0 0.0 0.0 0.01 0.37 0.23 98 1008.2
20260506121219 45 0 0.0 1.7 0.01 0.37 0.23 98 1008.1
20260506121019 45 0 0.0 1.7 0.01 0.37 0.23 98 1008.1
20260506120818 45 0 0.0 1.7 0.01 0.37 0.23 98 1008.1
20260506120618 45 42 0.0 1.7 0.01 0.37 0.23 98 1008.1
20260506120418 45 42 0.0 1.7 0.01 0.37 0.23 98 1008.1
20260506120217 45 42 0.0 0.9 0.01 0.37 0.23 98 1007.9
20260506120017 45 0 0.0 0.9 0.01 0.37 0.23 98 1007.9
20260506115817 45 0 0.0 1.7 0.01 0.37 0.23 98 1007.9
20260506115616 45 0 0.0 1.7 0.01 0.37 0.23 98 1007.9
20260506115416 45 0 0.0 1.7 0.01 0.37 0.23 98 1008.0
20260506115216 45 40 0.0 1.7 0.01 0.37 0.23 98 1008.0
20260506115015 45 40 0.0 1.7 0.01 0.37 0.23 98 1008.0
20260506114815 45 40 0.0 1.7 0.01 0.37 0.23 98 1008.0
20260506114615 45 40 0.0 1.7 0.01 0.37 0.23 98 1008.0
20260506114415 45 40 0.0 1.7 0.01 0.37 0.23 98 1008.1
20260506114214 45 40 0.0 1.7 0.01 0.37 0.23 98 1008.2
20260506114014 45 40 0.0 1.7 0.01 0.37 0.23 98 1008.2
20260506113814 45 41 0.0 1.7 0.01 0.37 0.23 98 1008.2
20260506113613 45 0 0.0 0.0 0.01 0.37 0.23 98 1008.1
20260506113413 45 0 0.0 0.0 0.00 0.36 0.22 98 1008.0
20260506113213 45 0 0.0 0.0 0.00 0.36 0.22 98 1008.1
20260506113012 45 0 0.0 0.0 0.00 0.36 0.22 98 1008.0
20260506112812 45 0 0.0 0.0 0.00 0.36 0.22 98 1008.0
20260506112612 45 0 0.0 0.9 0.00 0.36 0.22 98 1008.0
20260506112412 45 0 0.0 1.7 0.00 0.36 0.22 98 1007.9
20260506112211 45 0 0.0 1.7 0.00 0.36 0.22 98 1007.8
20260506112011 45 41 0.0 1.7 0.00 0.36 0.22 98 1007.6
20260506111811 45 40 0.0 1.7 0.00 0.36 0.22 98 1007.6
20260506111610 45 40 0.0 2.6 0.00 0.36 0.22 98 1007.6
20260506111410 45 40 0.0 2.6 0.00 0.36 0.22 98 1007.5
20260506111210 45 40 0.0 2.6 0.00 0.36 0.22 98 1007.5
20260506111009 45 40 0.0 2.6 0.00 0.36 0.22 98 1007.5
20260506110809 45 42 0.0 2.6 0.00 0.36 0.22 98 1007.5
20260506110609 45 49 0.0 1.7 0.00 0.36 0.22 98 1007.4
20260506110409 45 0 0.0 0.9 0.00 0.36 0.22 98 1007.3
20260506110208 45 0 0.0 1.7 0.00 0.36 0.22 98 1007.2
20260506110008 45 0 0.0 1.7 0.00 0.36 0.22 98 1007.1
20260506105808 45 1 0.0 1.7 0.00 0.36 0.22 98 1007.1
20260506105607 44 5 0.0 1.7 0.00 0.36 0.22 98 1007.0
20260506105407 45 9 0.0 1.7 0.00 0.36 0.22 98 1007.0
20260506105207 44 9 0.0 1.7 0.00 0.36 0.22 98 1007.0
20260506105006 44 0 0.0 1.7 0.00 0.36 0.22 98 1007.0
20260506104806 44 6 0.0 1.7 0.00 0.36 0.22 98 1007.1
20260506104606 44 6 0.0 2.6 0.01 0.36 0.22 98 1007.1
20260506104406 44 0 0.0 2.6 0.01 0.36 0.22 98 1007.1
20260506104205 44 24 0.0 2.6 0.01 0.36 0.22 98 1007.0
20260506104005 44 21 0.0 2.6 0.01 0.36 0.22 98 1007.1
20260506103805 44 282 0.0 2.6 0.01 0.36 0.22 98 1007.1
20260506103604 44 282 0.0 1.7 0.01 0.36 0.22 98 1007.2
20260506103404 44 282 0.9 1.7 0.01 0.36 0.22 98 1007.3
20260506103204 44 282 0.0 1.7 0.01 0.36 0.22 98 1007.4
20260506103003 44 283 0.0 1.7 0.02 0.36 0.22 98 1007.3
20260506102803 44 0 0.0 1.7 0.02 0.36 0.22 98 1007.5
20260506102603 44 282 0.0 1.7 0.02 0.36 0.22 98 1007.7
20260506102403 44 282 0.0 1.7 0.02 0.36 0.22 98 1007.6
20260506102202 44 283 0.0 0.9 0.02 0.36 0.22 98 1007.7
20260506102002 44 0 0.0 2.6 0.02 0.36 0.22 98 1007.8
20260506101802 44 0 0.0 2.6 0.02 0.36 0.22 98 1007.8
20260506101237 44 282 0.0 2.6 0.02 0.36 0.22 97 1007.6
20260506101036 44 282 0.0 2.6 0.02 0.36 0.22 97 1007.6
20260506100836 44 282 0.0 0.9 0.02 0.36 0.22 97 1007.6
20260506100636 44 282 0.0 0.9 0.02 0.36 0.22 97 1007.6
20260506100436 44 282 0.0 0.9 0.02 0.36 0.22 97 1007.6
20260506100235 44 0 0.0 1.7 0.02 0.36 0.22 97 1007.2
20260506100035 44 283 0.0 1.7 0.02 0.36 0.22 97 1007.0
20260506095835 44 282 0.0 1.7 0.02 0.36 0.22 97 1006.9
20260506095634 44 283 0.9 2.6 0.02 0.36 0.22 97 1006.9
20260506095434 44 20 0.0 2.6 0.02 0.36 0.22 97 1006.9
20260506095234 44 87 0.0 2.6 0.02 0.36 0.22 97 1007.1
20260506095033 44 0 0.0 2.6 0.02 0.36 0.22 97 1007.2
20260506094833 44 80 0.9 2.6 0.01 0.35 0.21 97 1007.1
20260506094633 44 44 0.0 4.3 0.01 0.35 0.21 97 1007.2
20260506094433 44 13 0.0 4.3 0.01 0.35 0.21 97 1007.2
20260506094232 44 47 0.0 4.3 0.01 0.35 0.21 97 1007.3
20260506094032 45 88 0.9 4.3 0.01 0.35 0.21 97 1007.3
20260506093832 45 82 0.9 4.3 0.01 0.35 0.21 97 1007.3
20260506093631 45 75 0.9 3.5 0.02 0.35 0.21 97 1007.4
20260506093431 45 270 0.0 1.7 0.02 0.35 0.21 97 1007.5
20260506093231 45 265 0.0 1.7 0.02 0.35 0.21 97 1007.7
20260506093030 45 260 0.0 1.7 0.01 0.34 0.20 97 1007.8
20260506092830 45 260 0.0 1.7 0.01 0.34 0.20 97 1007.9
20260506092630 45 260 0.0 1.7 0.01 0.34 0.20 97 1007.8
20260506092430 45 260 0.0 0.9 0.01 0.34 0.20 97 1007.8
20260506092229 45 0 0.0 0.0 0.01 0.34 0.20 97 1007.8
20260506092029 45 0 0.0 0.0 0.01 0.34 0.20 97 1007.9
20260506091829 45 0 0.0 0.0 0.01 0.34 0.20 97 1007.7
20260506091628 45 0 0.0 0.0 0.01 0.34 0.20 97 1007.7
20260506091428 45 0 0.0 0.9 0.01 0.34 0.20 97 1007.7
20260506091228 45 0 0.0 0.9 0.01 0.34 0.20 97 1007.7
20260506091027 45 0 0.0 0.9 0.01 0.34 0.20 97 1007.7
20260506090827 45 260 0.0 0.9 0.02 0.34 0.20 97 1007.6
20260506090627 45 260 0.0 0.9 0.02 0.34 0.20 97 1007.5
20260506090427 45 260 0.0 0.9 0.02 0.34 0.20 97 1007.5
20260506090226 45 0 0.0 0.0 0.02 0.34 0.20 97 1007.6
20260506090026 45 0 0.0 0.0 0.02 0.34 0.20 97 1007.6
20260506085826 45 0 0.0 0.0 0.02 0.34 0.20 97 1007.6
20260506085625 45 0 0.0 1.7 0.02 0.34 0.20 97 1007.5
20260506085425 45 0 0.0 1.7 0.02 0.34 0.20 97 1007.5
20260506085225 45 0 0.0 1.7 0.02 0.34 0.20 97 1007.5
20260506085024 45 260 0.0 1.7 0.03 0.34 0.20 97 1007.6
20260506084824 45 260 0.0 1.7 0.03 0.34 0.20 97 1007.7
20260506084624 45 0 0.0 1.7 0.03 0.34 0.20 97 1007.8
20260506084424 45 0 0.0 1.7 0.03 0.34 0.20 97 1007.8
20260506084223 45 260 0.0 1.7 0.03 0.34 0.20 96 1007.9
20260506084023 45 256 0.0 1.7 0.03 0.34 0.20 96 1007.8
20260506083823 45 253 0.0 1.7 0.03 0.34 0.20 96 1007.9
20260506083622 45 253 0.0 1.7 0.02 0.33 0.19 96 1007.9
20260506083422 45 253 0.0 1.7 0.03 0.33 0.19 96 1007.8
20260506083222 45 253 0.0 1.7 0.03 0.33 0.19 96 1007.8
20260506083021 45 253 0.0 1.7 0.03 0.33 0.19 96 1007.9
20260506082821 45 253 0.0 1.7 0.03 0.33 0.19 96 1007.8
20260506082621 45 253 0.0 1.7 0.03 0.33 0.19 96 1007.9
20260506082420 45 0 0.0 1.7 0.03 0.33 0.19 96 1008.0
20260506082220 45 0 0.0 1.7 0.03 0.33 0.19 96 1007.9
20260506082020 45 252 0.0 1.7 0.03 0.33 0.19 96 1007.9
20260506081820 45 252 0.0 1.7 0.03 0.33 0.19 96 1007.9
20260506081619 45 0 0.0 0.0 0.03 0.33 0.19 96 1007.9
20260506081419 45 0 0.0 0.0 0.03 0.33 0.19 96 1008.0
20260506081219 45 0 0.0 0.0 0.03 0.33 0.19 96 1007.9
20260506081018 45 0 0.0 0.0 0.03 0.33 0.19 96 1007.9
20260506080818 45 0 0.0 0.0 0.02 0.32 0.18 95 1007.9
20260506080618 45 0 0.0 0.0 0.02 0.32 0.18 95 1007.8
20260506080417 45 0 0.0 0.0 0.02 0.32 0.18 95 1007.7
20260506080217 45 0 0.0 0.0 0.02 0.32 0.18 95 1007.7
20260506073413 45 0 0.0 0.0 0.03 0.30 0.16 95 1007.6
20260506073213 45 0 0.0 0.0 0.03 0.30 0.16 95 1007.5
20260506073012 45 0 0.0 0.0 0.04 0.30 0.16 95 1007.5
20260506072812 45 0 0.0 0.9 0.04 0.30 0.16 95 1007.5
20260506072612 45 0 0.0 1.7 0.04 0.30 0.16 95 1007.5
20260506072411 45 0 0.0 1.7 0.04 0.30 0.16 95 1007.5
20260506072211 45 0 0.0 1.7 0.04 0.30 0.16 95 1007.6
20260506072011 45 252 0.0 1.7 0.04 0.30 0.16 95 1007.5
20260506071811 45 252 0.0 1.7 0.05 0.30 0.16 95 1007.5
20260506071610 45 0 0.0 0.0 0.05 0.30 0.16 95 1007.6
20260506071410 45 0 0.0 0.0 0.05 0.30 0.16 95 1007.7
20260506071210 45 0 0.0 0.0 0.05 0.30 0.16 95 1007.7
20260506071009 45 0 0.0 0.0 0.05 0.30 0.16 95 1007.8
20260506070809 45 0 0.0 0.0 0.05 0.30 0.16 95 1007.8
20260506070609 45 0 0.0 0.9 0.05 0.30 0.16 95 1007.7
20260506070408 45 0 0.0 0.9 0.06 0.30 0.16 95 1007.7
20260506070208 45 0 0.0 1.7 0.06 0.30 0.16 95 1007.8
20260506062402 46 0 0.0 0.0 0.06 0.26 0.12 96 1007.8
20260506062202 46 0 0.0 0.0 0.06 0.26 0.12 96 1007.9
20260506062002 46 0 0.0 0.0 0.07 0.26 0.12 96 1007.9
20260506061802 46 0 0.0 0.9 0.06 0.25 0.11 96 1007.9
20260506061601 46 0 0.0 0.9 0.06 0.25 0.11 96 1007.9
20260506061401 46 0 0.0 0.9 0.06 0.25 0.11 97 1007.8
20260506061201 46 228 0.0 0.9 0.07 0.25 0.11 97 1007.6
20260506061000 46 228 0.0 0.9 0.07 0.25 0.11 97 1007.9
20260506060800 46 228 0.0 0.9 0.07 0.25 0.11 97 1007.9
20260506060600 46 228 0.0 0.9 0.07 0.25 0.11 97 1007.8
20260506060359 46 0 0.0 0.9 0.07 0.24 0.10 97 1007.8
20260506060159 46 0 0.0 1.7 0.07 0.24 0.10 97 1007.9
20260506051352 48 0 0.0 0.9 0.05 0.19 0.05 98 1008.4
20260506051152 48 228 0.0 0.9 0.04 0.18 0.04 98 1008.5
20260506050951 48 228 0.0 1.7 0.04 0.18 0.04 98 1008.5
20260506050751 48 0 0.0 1.7 0.04 0.18 0.04 98 1008.5
20260506050551 48 0 0.0 1.7 0.04 0.18 0.04 98 1008.5
20260506050350 48 228 0.0 1.7 0.03 0.17 0.03 98 1008.5
20260506050150 48 228 0.0 1.7 0.03 0.17 0.03 98 1008.5
20260506044948 48 232 0.9 2.6 0.02 0.16 0.02 98 1008.5
20260506044748 48 239 0.0 2.6 0.02 0.16 0.02 98 1008.6
20260506044548 48 239 0.9 1.7 0.01 0.15 0.01 98 1008.6
20260506044347 48 234 0.9 3.5 0.01 0.15 0.01 98 1008.6
20260506044147 48 234 0.0 4.3 0.01 0.15 0.01 98 1008.6
20260506043947 48 234 0.0 4.3 0.01 0.15 0.01 98 1008.5
20260506043746 48 232 0.9 4.3 0.01 0.15 0.01 98 1008.5
20260506043546 48 226 0.9 4.3 0.01 0.15 0.01 98 1008.6
20260506043346 48 222 0.9 3.5 0.01 0.15 0.01 98 1008.5
20260506043146 48 222 0.9 3.5 0.01 0.15 0.01 98 1008.6
20260506042945 48 221 0.9 3.5 0.00 0.14 0.00 97 1008.6
20260506042745 48 219 1.7 3.5 0.00 0.14 0.00 97 1008.6
20260506042545 48 220 0.9 3.5 0.00 0.14 0.00 97 1008.7
20260506042344 48 232 0.9 3.5 0.00 0.14 0.00 97 1008.7
20260506042144 48 241 0.0 1.7 0.00 0.14 0.00 97 1008.7
20260506041944 48 241 0.0 2.6 0.00 0.14 0.00 97 1008.6
20260506041743 48 241 0.0 2.6 0.00 0.14 0.00 97 1008.6
20260506041543 48 241 0.0 3.5 0.00 0.14 0.00 97 1008.6
20260506041343 48 241 0.0 3.5 0.00 0.14 0.00 97 1008.5
20260506041143 48 241 0.9 4.3 0.00 0.14 0.00 97 1008.5
20260506040942 48 237 0.9 4.3 0.00 0.14 0.00 97 1008.5
20260506040742 48 224 0.9 4.3 0.00 0.14 0.00 97 1008.6
20260506040542 48 226 0.9 4.3 0.00 0.14 0.00 97 1008.5
20260506040341 48 226 0.9 2.6 0.00 0.14 0.00 97 1008.5
20260506040141 48 226 0.9 2.6 0.00 0.14 0.00 97 1008.5
20260506035941 48 226 0.0 1.7 0.00 0.14 0.14 97 1008.5
20260506035740 48 227 0.0 1.7 0.00 0.14 0.14 97 1008.4
20260506035540 48 227 0.0 2.6 0.00 0.14 0.14 97 1008.5
20260506035340 48 227 0.0 2.6 0.00 0.14 0.14 97 1008.5
20260506035140 48 227 0.0 2.6 0.00 0.14 0.14 97 1008.5
20260506034939 48 227 0.0 2.6 0.00 0.14 0.14 97 1008.2
20260506034739 48 232 0.0 2.6 0.00 0.14 0.14 97 1008.2
20260506034539 48 244 0.0 2.6 0.00 0.14 0.14 97 1008.3
20260506034338 48 252 0.9 2.6 0.00 0.14 0.14 97 1008.4
20260506034138 48 250 0.9 2.6 0.00 0.14 0.14 97 1008.4
20260506033938 48 223 0.0 3.5 0.00 0.14 0.14 97 1008.3
20260506033737 48 217 0.9 3.5 0.00 0.14 0.14 97 1008.2
20260506033537 48 218 0.9 3.5 0.00 0.14 0.14 97 1008.2
20260506033337 48 218 0.9 3.5 0.01 0.14 0.14 97 1008.2
20260506033137 48 222 0.9 3.5 0.01 0.14 0.14 97 1008.3
20260506032936 48 239 0.0 1.7 0.01 0.14 0.14 97 1008.2
20260506032736 48 0 0.0 1.7 0.01 0.14 0.14 97 1008.2
20260506032536 48 239 0.0 1.7 0.01 0.14 0.14 97 1008.2
20260506032335 48 239 0.0 1.7 0.01 0.14 0.14 97 1008.2
20260506032135 48 0 0.0 2.6 0.01 0.14 0.14 97 1008.2
20260506031935 48 239 0.0 3.5 0.01 0.14 0.14 97 1008.1
20260506031734 48 239 0.0 3.5 0.01 0.14 0.14 97 1008.0
20260506031534 48 239 0.0 3.5 0.01 0.14 0.14 97 1007.9
20260506031334 48 224 0.9 3.5 0.01 0.14 0.14 97 1007.9
20260506031134 48 221 0.0 3.5 0.01 0.14 0.14 97 1007.8
20260506030933 48 239 0.0 2.6 0.01 0.14 0.14 97 1007.8
20260506030733 48 237 0.0 3.5 0.01 0.14 0.14 97 1007.9
20260506030533 48 233 0.9 3.5 0.01 0.14 0.14 97 1008.0
20260506030332 48 248 0.9 3.5 0.01 0.14 0.14 97 1008.1
20260506030132 48 256 0.9 3.5 0.01 0.14 0.14 97 1008.1
20260506025932 48 245 0.0 3.5 0.01 0.14 0.14 96 1008.2
20260506025731 48 223 0.9 3.5 0.01 0.14 0.14 96 1008.2
20260506025531 48 225 0.9 3.5 0.01 0.14 0.14 96 1008.4
20260506025331 48 224 0.9 3.5 0.01 0.14 0.14 96 1008.4
20260506025131 48 222 0.0 3.5 0.01 0.14 0.14 96 1008.2
20260506024930 48 223 0.9 3.5 0.01 0.14 0.14 96 1008.3
20260506024730 48 225 1.7 3.5 0.01 0.14 0.14 96 1008.2
20260506024530 48 225 0.9 3.5 0.01 0.14 0.14 96 1008.3
20260506024329 48 224 0.9 3.5 0.01 0.14 0.14 96 1008.4
20260506024129 48 225 0.0 3.5 0.01 0.14 0.14 96 1008.4
20260506023929 48 0 0.0 3.5 0.01 0.14 0.14 96 1008.5
20260506023728 48 223 0.9 3.5 0.01 0.14 0.14 96 1008.4
20260506023528 48 228 0.9 3.5 0.01 0.14 0.14 96 1008.4
20260506023328 48 232 0.9 3.5 0.00 0.13 0.13 96 1008.4
20260506023128 48 232 0.9 3.5 0.00 0.13 0.13 96 1008.6
20260506022927 48 219 0.9 3.5 0.00 0.13 0.13 96 1008.6
20260506022727 48 218 0.9 3.5 0.00 0.13 0.13 96 1008.5
20260506022527 48 225 0.0 2.6 0.00 0.13 0.13 96 1008.6
20260506022326 48 0 0.0 2.6 0.00 0.13 0.13 96 1008.6
20260506022126 48 225 0.9 2.6 0.00 0.13 0.13 96 1008.5
20260506021926 48 227 0.9 2.6 0.00 0.13 0.13 96 1008.7
20260506021725 48 232 0.9 2.6 0.00 0.13 0.13 96 1008.7
20260506021525 48 235 0.9 2.6 0.00 0.13 0.13 96 1008.6
20260506021325 48 235 0.0 2.6 0.00 0.13 0.13 96 1008.6
20260506021125 48 235 0.9 3.5 0.00 0.13 0.13 96 1008.5
20260506020924 48 0 0.0 3.5 0.00 0.13 0.13 96 1008.5
20260506020724 48 235 0.0 3.5 0.01 0.13 0.13 96 1008.5
20260506020524 48 226 0.9 3.5 0.01 0.13 0.13 96 1008.5
20260506020323 48 225 0.9 3.5 0.01 0.13 0.13 96 1008.6
20260506020123 48 234 0.0 2.6 0.01 0.13 0.13 96 1008.4
20260506015923 48 230 0.9 2.6 0.01 0.13 0.13 96 1008.4
20260506015722 48 224 0.0 3.5 0.01 0.13 0.13 96 1008.4
20260506015522 48 215 0.0 3.5 0.01 0.13 0.13 96 1008.4
20260506015322 48 215 0.0 3.5 0.01 0.13 0.13 96 1008.4
20260506015122 48 227 0.9 3.5 0.02 0.13 0.13 96 1008.3
20260506014921 48 233 0.9 2.6 0.02 0.13 0.13 96 1008.3
20260506014721 48 232 0.0 2.6 0.02 0.13 0.13 96 1008.2
20260506014521 48 240 0.0 2.6 0.02 0.13 0.13 96 1008.0
20260506014320 48 250 0.0 2.6 0.02 0.13 0.13 96 1008.0
20260506014120 48 0 0.0 2.6 0.02 0.13 0.13 96 1007.9
20260506013920 48 0 0.0 3.5 0.02 0.13 0.13 96 1007.8
20260506013719 48 250 0.0 3.5 0.02 0.13 0.13 95 1008.0
20260506013519 48 240 0.0 3.5 0.02 0.13 0.13 95 1008.1
20260506013319 48 233 1.7 3.5 0.02 0.13 0.13 95 1008.1
20260506013119 48 245 0.9 3.5 0.02 0.13 0.13 95 1008.2
20260506012918 48 249 0.0 3.5 0.02 0.13 0.13 95 1008.2
20260506012718 48 249 0.0 4.3 0.02 0.13 0.13 95 1008.2
20260506012518 48 249 0.9 6.1 0.02 0.13 0.13 95 1008.3
20260506012317 48 245 1.7 7.0 0.03 0.13 0.13 95 1008.4
20260506012117 48 224 1.7 7.0 0.03 0.13 0.13 95 1008.5
20260506011917 48 228 2.6 7.8 0.03 0.13 0.13 95 1008.4
20260506011716 48 226 3.5 7.8 0.03 0.13 0.13 95 1008.5
20260506011516 49 231 2.6 7.8 0.03 0.13 0.13 95 1008.5
20260506011316 48 237 1.7 7.8 0.03 0.13 0.13 95 1008.4
20260506011116 49 233 2.6 7.8 0.03 0.13 0.13 95 1008.3
20260506010915 49 233 2.6 7.0 0.02 0.12 0.12 95 1008.3
20260506010715 49 220 3.5 7.0 0.02 0.12 0.12 95 1008.2
20260506010515 49 222 3.5 7.0 0.02 0.12 0.12 95 1008.2
20260506010314 49 232 2.6 5.2 0.02 0.12 0.12 95 1008.2
20260506010114 49 234 1.7 4.3 0.02 0.12 0.12 95 1008.2
20260506005914 49 234 1.7 4.3 0.02 0.12 0.12 95 1008.1
20260506005713 49 231 0.9 4.3 0.02 0.12 0.12 94 1008.1
20260506005513 49 0 0.0 0.0 0.02 0.12 0.12 95 1007.9
20260506005313 49 0 0.0 0.9 0.02 0.12 0.12 94 1007.8
20260506005112 49 0 0.0 1.7 0.01 0.11 0.11 94 1007.8
20260506004912 49 0 0.0 1.7 0.01 0.11 0.11 94 1007.7
20260506004712 49 232 0.0 1.7 0.01 0.11 0.11 94 1007.8
20260506004512 49 232 0.0 1.7 0.01 0.11 0.11 94 1007.7
20260506004311 49 232 0.0 1.7 0.01 0.11 0.11 94 1007.6
20260506004111 49 232 0.0 1.7 0.01 0.11 0.11 94 1007.6
20260506003911 49 232 0.0 1.7 0.01 0.11 0.11 94 1007.6
20260506003710 49 232 0.0 1.7 0.01 0.11 0.11 94 1007.7
20260506003510 49 232 0.0 1.7 0.01 0.11 0.11 94 1007.7
20260506003310 49 232 0.0 1.7 0.01 0.11 0.11 94 1007.8
20260506003109 49 232 0.0 2.6 0.01 0.11 0.11 94 1007.9
20260506002909 49 232 0.0 2.6 0.01 0.11 0.11 94 1007.9
20260506002709 49 232 0.0 2.6 0.01 0.11 0.11 93 1007.9
20260506002509 49 232 0.9 3.5 0.00 0.10 0.10 93 1007.8
20260506002308 49 232 0.9 3.5 0.00 0.10 0.10 93 1007.8
20260506002108 49 232 0.9 3.5 0.00 0.10 0.10 93 1007.9
20260506001908 49 226 0.9 3.5 0.00 0.10 0.10 93 1007.9
20260506001707 49 209 0.9 3.5 0.00 0.10 0.10 93 1007.8
20260506001507 49 0 0.0 0.9 0.00 0.10 0.10 93 1007.8
20260506001307 49 0 0.0 0.9 0.00 0.10 0.10 93 1007.7
20260506001106 49 206 0.0 0.9 0.00 0.10 0.10 93 1007.7
20260506000906 49 206 0.0 0.9 0.00 0.10 0.10 93 1007.8
20260506000706 49 206 0.0 1.7 0.00 0.10 0.10 93 1007.9
20260506000506 49 206 0.0 1.7 0.00 0.10 0.10 92 1007.9
20260506000305 49 206 0.0 2.6 0.00 0.10 0.10 92 1007.9
20260506000105 49 206 0.0 2.6 0.00 0.10 0.10 92 1007.8
20260505235905 49 206 0.0 2.6 0.00 0.10 0.10 92 1007.8
20260505235704 49 206 0.9 3.5 0.00 0.10 0.10 92 1007.9
20260505235504 49 206 0.9 3.5 0.00 0.10 0.10 92 1008.0
20260505235305 49 206 0.9 3.5 0.00 0.10 0.10 92 1008.0
20260505235103 49 162 0.9 3.5 0.00 0.10 0.10 92 1007.9
20260505234903 49 123 0.9 3.5 0.00 0.10 0.10 92 1007.9
20260505234703 49 126 0.9 3.5 0.00 0.10 0.10 92 1007.8
20260505234503 49 213 0.9 2.6 0.00 0.10 0.10 92 1007.8
20260505234302 50 249 0.9 2.6 0.00 0.10 0.10 92 1007.8
20260505234102 50 234 0.0 2.6 0.00 0.10 0.10 92 1007.8
20260505233902 50 0 0.0 1.7 0.00 0.10 0.10 92 1007.6
20260505233701 50 121 0.0 2.6 0.00 0.10 0.10 92 1007.5
20260505233501 50 121 0.0 2.6 0.00 0.10 0.10 92 1007.5
20260505233301 50 121 0.0 2.6 0.00 0.10 0.10 92 1007.5
20260505233100 50 155 0.0 2.6 0.00 0.10 0.10 92 1007.5
20260505232900 50 202 0.0 2.6 0.00 0.10 0.10 92 1007.5
20260505232700 50 201 0.9 2.6 0.00 0.10 0.10 92 1007.5
20260505232500 50 204 0.9 2.6 0.00 0.10 0.10 92 1007.5
20260505232259 50 226 0.0 2.6 0.00 0.10 0.10 92 1007.4
20260505232059 50 240 0.0 1.7 0.00 0.10 0.10 92 1007.3
20260505231859 50 240 0.0 1.7 0.00 0.10 0.10 92 1007.3
20260505231658 50 240 0.0 2.6 0.01 0.10 0.10 92 1007.3
20260505231458 50 241 0.0 2.6 0.01 0.10 0.10 92 1007.3
20260505231258 50 240 0.0 2.6 0.01 0.10 0.10 92 1007.3
20260505231057 50 240 0.0 2.6 0.01 0.10 0.10 91 1007.5
20260505230857 50 240 0.9 2.6 0.01 0.10 0.10 91 1007.4
20260505230657 50 240 0.9 2.6 0.01 0.10 0.10 91 1007.3
20260505230457 50 230 0.9 3.5 0.02 0.10 0.10 91 1007.4
20260505230256 50 91 0.0 3.5 0.02 0.10 0.10 91 1007.4
20260505230056 50 91 0.9 3.5 0.02 0.10 0.10 91 1007.3
20260505225856 50 163 0.9 3.5 0.02 0.10 0.10 91 1007.3
20260505225655 50 192 0.9 3.5 0.02 0.10 0.10 91 1007.3
20260505225455 50 192 0.9 3.5 0.02 0.10 0.10 91 1007.3
20260505225255 50 237 0.9 3.5 0.03 0.10 0.10 91 1007.3
20260505225054 50 240 0.0 2.6 0.03 0.10 0.10 91 1007.4
20260505224854 50 241 0.0 2.6 0.03 0.10 0.10 91 1007.3
20260505224654 50 241 0.0 2.6 0.04 0.10 0.10 91 1007.4
20260505224453 50 241 0.9 2.6 0.04 0.10 0.10 91 1007.4
20260505224253 50 241 0.0 2.6 0.05 0.10 0.10 91 1007.3
20260505224053 50 241 0.0 1.7 0.05 0.10 0.10 91 1007.3
20260505223853 50 241 0.0 1.7 0.05 0.10 0.10 91 1007.3
20260505223652 50 241 0.0 1.7 0.06 0.10 0.10 91 1007.2
20260505223452 50 241 0.0 1.7 0.06 0.10 0.10 91 1007.2
20260505223252 50 0 0.0 1.7 0.06 0.10 0.10 91 1007.2
20260505223052 50 241 0.0 1.7 0.06 0.10 0.10 91 1007.1
20260505222851 50 241 0.0 2.6 0.06 0.10 0.10 91 1007.1
20260505222651 50 241 0.0 3.5 0.06 0.10 0.10 91 1007.1
20260505222451 50 241 0.0 3.5 0.06 0.10 0.10 91 1007.2
20260505222250 50 241 0.0 3.5 0.06 0.10 0.10 91 1007.2
20260505222050 50 183 0.0 3.5 0.06 0.10 0.10 90 1007.2
20260505221850 50 127 0.0 3.5 0.06 0.10 0.10 91 1007.3
20260505221649 50 127 0.0 1.7 0.05 0.09 0.09 90 1007.4
20260505221449 50 127 0.0 1.7 0.05 0.09 0.09 90 1007.5
20260505221249 50 127 0.0 2.6 0.05 0.09 0.09 90 1007.6
20260505221048 50 127 0.0 2.6 0.05 0.09 0.09 90 1007.6
20260505220848 50 128 0.0 2.6 0.05 0.09 0.09 90 1007.7
20260505220648 50 149 0.0 2.6 0.05 0.09 0.09 89 1007.7
20260505220447 50 204 0.0 2.6 0.04 0.08 0.08 89 1007.7
20260505220247 50 232 0.0 5.2 0.04 0.08 0.08 89 1007.7
20260505220047 50 194 0.0 5.2 0.04 0.08 0.08 89 1007.7
20260505215847 50 129 0.0 5.2 0.04 0.08 0.08 89 1007.7
20260505215646 50 131 0.0 5.2 0.04 0.08 0.08 89 1007.7
20260505215446 50 149 0.9 5.2 0.04 0.08 0.08 88 1007.7
20260505215246 50 214 0.9 5.2 0.03 0.07 0.07 88 1007.7
20260505215045 51 143 0.9 3.5 0.03 0.07 0.07 87 1007.7
20260505214845 51 155 0.9 5.2 0.03 0.07 0.07 87 1007.6
20260505214645 51 240 0.9 5.2 0.02 0.06 0.06 87 1007.6
20260505214444 51 93 0.9 5.2 0.02 0.06 0.06 87 1007.7
20260505214244 51 150 0.9 5.2 0.01 0.05 0.05 87 1007.7
20260505214044 51 209 1.7 5.2 0.01 0.05 0.05 86 1007.8
20260505213844 51 222 1.7 6.1 0.01 0.05 0.05 86 1007.8
20260505213643 51 142 0.9 6.1 0.00 0.04 0.04 86 1007.6
20260505213443 51 125 0.9 6.1 0.01 0.04 0.04 86 1007.5
20260505213243 52 128 1.7 6.1 0.01 0.04 0.04 85 1007.6
20260505213042 52 243 2.6 6.1 0.01 0.04 0.04 85 1007.5
20260505212842 52 247 1.7 5.2 0.02 0.04 0.04 85 1007.4
20260505212642 52 180 1.7 10.4 0.02 0.04 0.04 85 1007.3
20260505212441 51 235 0.9 10.4 0.02 0.04 0.04 85 1007.3
20260505212241 51 153 1.7 10.4 0.02 0.04 0.04 85 1007.2
20260505212041 51 128 2.6 10.4 0.02 0.04 0.04 85 1007.2
20260505211841 51 160 2.6 10.4 0.02 0.04 0.04 85 1007.1
20260505211640 51 199 1.7 10.4 0.02 0.04 0.04 86 1007.0
20260505211440 51 173 2.6 8.7 0.02 0.04 0.04 86 1007.0
20260505211240 51 170 2.6 8.7 0.02 0.04 0.04 86 1007.1
20260505211039 51 230 1.7 8.7 0.02 0.04 0.04 86 1007.1
20260505210839 51 317 2.6 8.7 0.02 0.04 0.04 86 1007.1
20260505210639 51 34 2.6 8.7 0.02 0.04 0.04 86 1007.0
20260505210438 51 42 1.7 10.4 0.02 0.04 0.04 87 1007.0
20260505210238 51 329 0.0 11.3 0.02 0.04 0.04 87 1006.9
20260505210038 51 25 0.9 11.3 0.03 0.04 0.04 87 1007.0
20260505205838 51 63 1.7 11.3 0.03 0.04 0.04 87 1007.0
20260505205637 51 139 2.6 11.3 0.03 0.04 0.04 87 1007.0
20260505205437 51 140 2.6 11.3 0.03 0.04 0.04 87 1007.0
20260505205237 51 154 1.7 7.0 0.04 0.04 0.04 87 1007.0
20260505205036 51 77 1.7 7.0 0.04 0.04 0.04 88 1006.9
20260505204836 51 96 1.7 7.8 0.04 0.04 0.04 87 1006.8
20260505204636 51 191 0.9 7.8 0.04 0.04 0.04 88 1006.9
20260505204435 51 172 1.7 7.8 0.04 0.04 0.04 87 1006.9
20260505204235 51 137 1.7 7.8 0.04 0.04 0.04 87 1006.9
20260505204035 52 93 2.6 7.8 0.04 0.04 0.04 86 1006.9
20260505203835 52 130 2.6 7.0 0.04 0.04 0.04 86 1006.8
20260505203634 52 54 2.6 7.0 0.04 0.04 0.04 86 1006.9
20260505203434 52 85 1.7 6.1 0.03 0.03 0.03 86 1007.0
20260505203234 52 94 1.7 6.1 0.03 0.03 0.03 85 1007.0
20260505203033 52 49 1.7 7.0 0.03 0.03 0.03 85 1007.0
20260505202833 52 89 0.9 7.0 0.02 0.02 0.02 85 1007.0
20260505202633 52 70 0.9 7.0 0.02 0.02 0.02 85 1006.9
20260505202432 52 63 1.7 7.0 0.02 0.02 0.02 86 1007.0
20260505202232 52 118 1.7 7.0 0.02 0.02 0.02 85 1006.9
20260505202032 52 250 0.9 6.1 0.02 0.02 0.02 85 1006.9
20260505201832 52 180 1.7 6.1 0.02 0.02 0.02 85 1006.9
20260505201631 52 164 1.7 6.1 0.02 0.02 0.02 85 1006.9
20260505201431 52 84 0.9 7.0 0.02 0.02 0.02 86 1006.8
20260505201231 52 60 1.7 8.7 0.02 0.02 0.02 85 1006.8
20260505201030 52 303 1.7 9.6 0.02 0.02 0.02 85 1006.8
20260505200830 52 38 1.7 9.6 0.02 0.02 0.02 85 1006.7
20260505200630 52 35 0.9 13.9 0.02 0.02 0.02 84 1006.7
20260505200429 53 29 2.6 13.9 0.02 0.02 0.02 83 1006.7
20260505200229 53 76 3.5 13.9 0.01 0.01 0.01 82 1006.8
20260505200029 53 133 4.3 13.9 0.01 0.01 0.01 81 1006.9
20260505195829 54 79 4.3 13.9 0.01 0.01 0.01 80 1006.8
20260505195628 54 70 5.2 10.4 0.01 0.01 0.01 79 1007.0
20260505195428 54 11 4.3 10.4 0.01 0.01 0.01 77 1006.8
20260505195228 55 56 3.5 9.6 0.00 0.00 0.00 76 1006.7
20260505195027 55 281 1.7 8.7 0.00 0.00 0.00 76 1006.7
20260505194827 56 261 1.7 8.7 0.00 0.00 0.00 74 1006.4
20260505194627 56 96 3.5 8.7 0.00 0.00 0.00 73 1006.3
20260505194426 56 306 3.5 8.7 0.00 0.00 0.00 71 1006.4
20260505194226 57 16 3.5 8.7 0.00 0.00 0.00 70 1006.3
20260505194026 57 110 3.5 9.6 0.00 0.00 0.00 69 1006.4
20260505193826 57 200 2.6 9.6 0.00 0.00 0.00 68 1006.3
20260505193625 58 278 2.6 9.6 0.00 0.00 0.00 66 1006.2
20260505193425 58 232 4.3 9.6 0.00 0.00 0.00 65 1006.0
20260505193225 58 235 3.5 10.4 0.00 0.00 0.00 64 1006.0
20260505193024 59 42 3.5 10.4 0.00 0.00 0.00 64 1006.0
20260505192824 59 290 4.3 10.4 0.00 0.00 0.00 64 1006.0
20260505192624 59 272 2.6 10.4 0.00 0.00 0.00 64 1006.1
20260505192423 60 321 4.3 10.4 0.00 0.00 0.00 63 1006.2
20260505192223 60 57 3.5 7.8 0.00 0.00 0.00 62 1006.3
20260505192023 61 348 3.5 7.8 0.00 0.00 0.00 61 1006.2
20260505191823 61 335 2.6 7.8 0.00 0.00 0.00 61 1006.2
20260505191622 61 25 2.6 7.8 0.00 0.00 0.00 60 1006.1
20260505191422 62 111 3.5 16.5 0.00 0.00 0.00 60 1006.1
20260505191222 62 264 2.6 17.4 0.00 0.00 0.00 61 1006.0
20260505191021 62 89 1.7 17.4 0.00 0.00 0.00 61 1006.1
20260505190821 62 54 2.6 17.4 0.00 0.00 0.00 61 1005.9
20260505190621 62 168 4.3 17.4 0.00 0.00 0.00 61 1005.9
20260505190420 62 109 3.5 17.4 0.00 0.00 0.00 61 1005.9
20260505190220 63 140 2.6 10.4 0.00 0.00 0.00 61 1005.8
20260505190020 62 108 1.7 10.4 0.00 0.00 0.00 62 1005.9
20260505185820 62 56 3.5 11.3 0.00 0.00 0.00 61 1005.8
20260505185619 62 253 3.5 12.2 0.00 0.00 0.00 61 1005.7
20260505185419 62 310 2.6 12.2 0.00 0.00 0.00 61 1005.7
20260505185219 62 245 3.5 12.2 0.00 0.00 0.00 61 1005.6
20260505185018 62 121 5.2 12.2 0.00 0.00 0.00 61 1005.6
20260505184818 62 127 4.3 12.2 0.00 0.00 0.00 61 1005.6
20260505184618 62 100 3.5 11.3 0.00 0.00 0.00 61 1005.5
20260505184417 62 116 1.7 10.4 0.00 0.00 0.00 61 1005.7
20260505184217 62 161 3.5 11.3 0.00 0.00 0.00 61 1005.6
20260505184017 62 158 4.3 11.3 0.00 0.00 0.00 60 1005.5
20260505183816 62 151 3.5 13.9 0.00 0.00 0.00 60 1005.5
20260505183616 62 71 2.6 13.9 0.00 0.00 0.00 61 1005.5
20260505183416 62 65 3.5 13.9 0.00 0.00 0.00 61 1005.5
20260505183216 62 137 5.2 13.9 0.00 0.00 0.00 60 1005.6
20260505183015 62 162 5.2 18.2 0.00 0.00 0.00 60 1005.6
20260505182815 63 212 4.3 18.2 0.00 0.00 0.00 60 1005.6
20260505182615 63 189 4.3 18.2 0.00 0.00 0.00 60 1005.7
20260505182416 63 172 6.1 18.2 0.00 0.00 0.00 61 1005.5
20260505182214 63 207 7.0 18.2 0.00 0.00 0.00 60 1005.5
20260505182014 63 222 7.0 18.2 0.00 0.00 0.00 59 1005.5
20260505181813 64 253 4.3 13.9 0.00 0.00 0.00 60 1005.6
20260505181613 64 265 2.6 10.4 0.00 0.00 0.00 60 1005.5
20260505181413 64 290 2.6 10.4 0.00 0.00 0.00 60 1005.4
20260505181213 64 280 3.5 10.4 0.00 0.00 0.00 60 1005.4
20260505181012 64 207 3.5 9.6 0.00 0.00 0.00 61 1005.3
20260505180812 64 221 3.5 9.6 0.00 0.00 0.00 62 1005.2
20260505180612 64 200 4.3 9.6 0.00 0.00 0.00 62 1005.1
20260505180411 64 230 3.5 9.6 0.00 0.00 0.00 63 1005.1
20260505180211 64 233 3.5 7.8 0.00 0.00 0.00 62 1005.1
20260505180011 63 146 3.5 7.8 0.00 0.00 0.00 63 1005.1
20260505175810 63 233 4.3 7.8 0.00 0.00 0.00 63 1005.0
20260505175610 63 216 4.3 7.8 0.00 0.00 0.00 63 1005.0
20260505175410 64 222 3.5 8.7 0.00 0.00 0.00 64 1004.9
20260505175210 64 203 2.6 9.6 0.00 0.00 0.00 65 1004.8
20260505175009 63 128 3.5 9.6 0.00 0.00 0.00 65 1004.8
20260505174809 63 147 3.5 9.6 0.00 0.00 0.00 65 1004.8
20260505174609 63 214 4.3 9.6 0.00 0.00 0.00 64 1004.8
20260505174408 63 203 4.3 10.4 0.00 0.00 0.00 65 1004.8
20260505174208 63 143 3.5 10.4 0.00 0.00 0.00 66 1004.8
20260505174008 63 216 4.3 10.4 0.00 0.00 0.00 65 1004.6
20260505173807 63 190 3.5 11.3 0.00 0.00 0.00 65 1004.7
20260505173607 63 167 2.6 16.5 0.00 0.00 0.00 66 1004.6
20260505173407 63 223 3.5 17.4 0.00 0.00 0.00 66 1004.6
20260505173207 63 243 4.3 17.4 0.00 0.00 0.00 65 1004.6
20260505173006 63 120 6.1 17.4 0.00 0.00 0.00 65 1004.7
20260505172806 63 227 5.2 17.4 0.00 0.00 0.00 66 1004.7
20260505172606 63 242 4.3 13.0 0.00 0.00 0.00 65 1004.7
20260505172405 64 150 3.5 13.0 0.00 0.00 0.00 66 1004.7
20260505172205 64 100 4.3 13.0 0.00 0.00 0.00 66 1004.7
20260505172005 64 158 5.2 18.2 0.00 0.00 0.00 66 1004.6
20260505171804 64 188 4.3 18.2 0.00 0.00 0.00 66 1004.5
20260505171604 63 241 5.2 18.2 0.00 0.00 0.00 66 1004.5
20260505171404 63 250 5.2 18.2 0.00 0.00 0.00 66 1004.5
20260505171204 63 97 6.1 18.2 0.00 0.00 0.00 67 1004.5
20260505171003 63 176 5.2 18.2 0.00 0.00 0.00 67 1004.5
20260505170803 63 264 5.2 12.2 0.00 0.00 0.00 67 1004.6
20260505170603 63 223 5.2 12.2 0.00 0.00 0.00 67 1004.6
20260505170402 63 286 5.2 12.2 0.00 0.00 0.00 68 1004.7
20260505170202 63 208 6.1 12.2 0.00 0.00 0.00 68 1004.6
20260505170002 63 160 2.6 12.2 0.00 0.00 0.00 68 1004.7
20260505165801 64 180 2.6 8.7 0.00 0.00 0.00 69 1004.6
20260505165601 64 211 3.5 8.7 0.00 0.00 0.00 68 1004.5
20260505165401 64 46 2.6 8.7 0.00 0.00 0.00 68 1004.6
20260505165201 64 249 3.5 9.6 0.00 0.00 0.00 69 1004.6
20260505165000 64 163 2.6 9.6 0.00 0.00 0.00 68 1004.6
20260505164800 64 44 2.6 9.6 0.00 0.00 0.00 68 1004.6
20260505164600 65 238 3.5 11.3 0.00 0.00 0.00 68 1004.5
20260505164359 65 67 3.5 12.2 0.00 0.00 0.00 68 1004.5
20260505164159 65 68 2.6 12.2 0.00 0.00 0.00 69 1004.5
20260505163959 64 70 2.6 12.2 0.00 0.00 0.00 70 1004.5
20260505163758 64 90 3.5 12.2 0.00 0.00 0.00 71 1004.3
20260505163558 64 251 2.6 12.2 0.00 0.00 0.00 71 1004.5
20260505163358 63 228 2.6 8.7 0.00 0.00 0.00 72 1004.3
20260505163158 63 120 3.5 8.7 0.00 0.00 0.00 72 1004.4
20260505162957 63 122 4.3 8.7 0.00 0.00 0.00 72 1004.3
20260505162757 63 178 3.5 8.7 0.00 0.00 0.00 73 1004.4
20260505162557 62 187 2.6 8.7 0.00 0.00 0.00 73 1004.6
20260505162356 62 233 4.3 10.4 0.00 0.00 0.00 73 1004.4
20260505162156 62 115 4.3 19.1 0.00 0.00 0.00 72 1004.5
20260505161956 63 187 3.5 19.1 0.00 0.00 0.00 72 1004.5
20260505161755 63 184 4.3 19.1 0.00 0.00 0.00 72 1004.5
20260505161555 63 165 6.1 19.1 0.00 0.00 0.00 72 1004.5
20260505161355 63 189 5.2 19.1 0.00 0.00 0.00 72 1004.6
20260505161155 63 231 5.2 15.6 0.00 0.00 0.00 72 1004.6
20260505160954 63 210 6.1 16.5 0.00 0.00 0.00 71 1004.5
20260505160754 64 199 5.2 16.5 0.00 0.00 0.00 72 1004.5
20260505160554 64 157 5.2 16.5 0.00 0.00 0.00 72 1004.3
20260505160353 64 155 6.1 16.5 0.00 0.00 0.00 72 1004.3
20260505160153 64 250 7.0 16.5 0.00 0.00 0.00 71 1004.2
20260505153349 66 261 3.5 9.6 0.00 0.00 0.00 72 1003.3
20260505153149 66 198 4.3 9.6 0.00 0.00 0.00 72 1003.3
20260505152948 66 119 3.5 9.6 0.00 0.00 0.00 73 1003.3
20260505152748 65 131 3.5 13.0 0.00 0.00 0.00 74 1003.3
20260505152548 65 157 4.3 13.0 0.00 0.00 0.00 74 1003.3
20260505152347 65 137 3.5 13.0 0.00 0.00 0.00 75 1003.3
20260505152147 64 254 4.3 13.0 0.00 0.00 0.00 75 1003.3
20260505151947 64 219 5.2 13.0 0.00 0.00 0.00 75 1003.3
20260505151746 64 239 3.5 11.3 0.00 0.00 0.00 76 1003.4
20260505151546 63 273 2.6 10.4 0.00 0.00 0.00 77 1003.4
20260505151346 63 211 3.5 11.3 0.00 0.00 0.00 77 1003.4
20260505151145 63 278 4.3 11.3 0.00 0.00 0.00 76 1003.3
20260505150945 63 172 4.3 13.9 0.00 0.00 0.00 77 1003.4
20260505150745 63 314 5.2 13.9 0.00 0.00 0.00 77 1003.5
20260505150545 63 96 5.2 15.6 0.00 0.00 0.00 76 1003.7
20260505150344 64 128 4.3 15.6 0.00 0.00 0.00 76 1003.4
20260505150144 64 207 6.1 15.6 0.00 0.00 0.00 76 1003.5